Year,Month,Day,Hour,Minute,Value (Times are PST for temperature in C)
2013,03,03,00,00,5.20
2013,03,03,00,01,5.20
2013,03,03,00,02,5.20
2013,03,03,00,03,5.20
2013,03,03,00,04,5.20
2013,03,03,00,05,5.30
2013,03,03,00,06,5.30
2013,03,03,00,07,5.30
2013,03,03,00,08,5.30
2013,03,03,00,09,5.30
2013,03,03,00,10,5.30
2013,03,03,00,11,5.40
2013,03,03,00,12,5.40
2013,03,03,00,13,5.40
2013,03,03,00,14,5.40
2013,03,03,00,15,5.40
2013,03,03,00,16,5.40
2013,03,03,00,17,5.40
2013,03,03,00,18,5.40
2013,03,03,00,19,5.40
2013,03,03,00,20,5.40
2013,03,03,00,21,5.40
2013,03,03,00,22,5.40
2013,03,03,00,23,5.30
2013,03,03,00,24,5.30
2013,03,03,00,25,5.30
2013,03,03,00,26,5.30
2013,03,03,00,27,5.30
2013,03,03,00,28,5.30
2013,03,03,00,29,5.30
2013,03,03,00,30,5.30
2013,03,03,00,31,5.30
2013,03,03,00,32,5.30
2013,03,03,00,33,5.30
2013,03,03,00,34,5.30
2013,03,03,00,35,5.30
2013,03,03,00,36,5.30
2013,03,03,00,37,5.30
2013,03,03,00,38,5.20
2013,03,03,00,39,5.20
2013,03,03,00,40,5.20
2013,03,03,00,41,5.20
2013,03,03,00,42,5.20
2013,03,03,00,43,5.20
2013,03,03,00,44,5.20
2013,03,03,00,45,5.20
2013,03,03,00,46,5.20
2013,03,03,00,47,5.20
2013,03,03,00,48,5.20
2013,03,03,00,49,5.20
2013,03,03,00,50,5.20
2013,03,03,00,51,5.20
2013,03,03,00,52,5.20
2013,03,03,00,53,5.20
2013,03,03,00,54,5.20
2013,03,03,00,55,5.20
2013,03,03,00,56,5.20
2013,03,03,00,57,5.20
2013,03,03,00,58,5.20
2013,03,03,00,59,5.20
2013,03,03,01,00,5.20
2013,03,03,01,01,5.20
2013,03,03,01,02,5.20
2013,03,03,01,03,5.20
2013,03,03,01,04,5.20
2013,03,03,01,05,5.20
2013,03,03,01,06,5.20
2013,03,03,01,07,5.20
2013,03,03,01,08,5.20
2013,03,03,01,09,5.20
2013,03,03,01,10,5.20
2013,03,03,01,11,5.30
2013,03,03,01,12,5.30
2013,03,03,01,13,5.30
2013,03,03,01,14,5.30
2013,03,03,01,15,5.30
2013,03,03,01,16,5.30
2013,03,03,01,17,5.30
2013,03,03,01,18,5.30
2013,03,03,01,19,5.30
2013,03,03,01,20,5.30
2013,03,03,01,21,5.30
2013,03,03,01,22,5.30
2013,03,03,01,23,5.30
2013,03,03,01,24,5.30
2013,03,03,01,25,5.30
2013,03,03,01,26,5.30
2013,03,03,01,27,5.30
2013,03,03,01,28,5.30
2013,03,03,01,29,5.30
2013,03,03,01,30,5.30
2013,03,03,01,31,5.30
2013,03,03,01,32,5.30
2013,03,03,01,33,5.30
2013,03,03,01,34,5.20
2013,03,03,01,35,5.20
2013,03,03,01,36,5.20
2013,03,03,01,37,5.20
2013,03,03,01,38,5.20
2013,03,03,01,39,5.20
2013,03,03,01,40,5.20
2013,03,03,01,41,5.10
2013,03,03,01,42,5.10
2013,03,03,01,43,5.20
2013,03,03,01,44,5.10
2013,03,03,01,45,5.10
2013,03,03,01,46,5.10
2013,03,03,01,47,5.10
2013,03,03,01,48,5.10
2013,03,03,01,49,5.10
2013,03,03,01,50,5.10
2013,03,03,01,51,5.10
2013,03,03,01,52,5.10
2013,03,03,01,53,5.10
2013,03,03,01,54,5.10
2013,03,03,01,55,5.10
2013,03,03,01,56,5.10
2013,03,03,01,57,5.10
2013,03,03,01,58,5.10
2013,03,03,01,59,5.10
2013,03,03,02,00,5.10
2013,03,03,02,01,5.10
2013,03,03,02,02,5.10
2013,03,03,02,03,5.00
2013,03,03,02,04,4.90
2013,03,03,02,05,4.80
2013,03,03,02,06,4.70
2013,03,03,02,07,4.60
2013,03,03,02,08,4.60
2013,03,03,02,09,4.50
2013,03,03,02,10,4.40
2013,03,03,02,11,4.30
2013,03,03,02,12,4.20
2013,03,03,02,13,4.10
2013,03,03,02,14,4.10
2013,03,03,02,15,4.00
2013,03,03,02,16,4.00
2013,03,03,02,17,3.90
2013,03,03,02,18,3.80
2013,03,03,02,19,3.80
2013,03,03,02,20,3.70
2013,03,03,02,21,3.60
2013,03,03,02,22,3.50
2013,03,03,02,23,3.40
2013,03,03,02,24,3.30
2013,03,03,02,25,3.30
2013,03,03,02,26,3.20
2013,03,03,02,27,3.20
2013,03,03,02,28,3.10
2013,03,03,02,29,3.10
2013,03,03,02,30,3.00
2013,03,03,02,31,2.90
2013,03,03,02,32,2.90
2013,03,03,02,33,2.90
2013,03,03,02,34,2.80
2013,03,03,02,35,2.80
2013,03,03,02,36,2.80
2013,03,03,02,37,2.80
2013,03,03,02,38,2.70
2013,03,03,02,39,2.70
2013,03,03,02,40,2.70
2013,03,03,02,41,2.70
2013,03,03,02,42,2.60
2013,03,03,02,43,2.60
2013,03,03,02,44,2.60
2013,03,03,02,45,2.50
2013,03,03,02,46,2.50
2013,03,03,02,47,2.50
2013,03,03,02,48,2.40
2013,03,03,02,49,2.40
2013,03,03,02,50,2.40
2013,03,03,02,51,2.40
2013,03,03,02,52,2.40
2013,03,03,02,53,2.40
2013,03,03,02,54,2.30
2013,03,03,02,55,2.30
2013,03,03,02,56,2.30
2013,03,03,02,57,2.30
2013,03,03,02,58,2.30
2013,03,03,02,59,2.20
2013,03,03,03,00,2.20
2013,03,03,03,01,2.30
2013,03,03,03,02,2.30
2013,03,03,03,03,2.30
2013,03,03,03,04,2.30
2013,03,03,03,05,2.30
2013,03,03,03,06,2.30
2013,03,03,03,07,2.30
2013,03,03,03,08,2.30
2013,03,03,03,09,2.30
2013,03,03,03,10,2.30
2013,03,03,03,11,2.30
2013,03,03,03,12,2.30
2013,03,03,03,13,2.30
2013,03,03,03,14,2.40
2013,03,03,03,15,2.40
2013,03,03,03,16,2.30
2013,03,03,03,17,2.40
2013,03,03,03,18,2.40
2013,03,03,03,19,2.40
2013,03,03,03,20,2.40
2013,03,03,03,21,2.40
2013,03,03,03,22,2.40
2013,03,03,03,23,2.30
2013,03,03,03,24,2.30
2013,03,03,03,25,2.30
2013,03,03,03,26,2.30
2013,03,03,03,27,2.20
2013,03,03,03,28,2.20
2013,03,03,03,29,2.20
2013,03,03,03,30,2.20
2013,03,03,03,31,2.20
2013,03,03,03,32,2.20
2013,03,03,03,33,2.30
2013,03,03,03,34,2.20
2013,03,03,03,35,2.20
2013,03,03,03,36,2.20
2013,03,03,03,37,2.20
2013,03,03,03,38,2.10
2013,03,03,03,39,2.10
2013,03,03,03,40,2.10
2013,03,03,03,41,2.10
2013,03,03,03,42,2.00
2013,03,03,03,43,2.00
2013,03,03,03,44,2.00
2013,03,03,03,45,2.00
2013,03,03,03,46,2.00
2013,03,03,03,47,2.00
2013,03,03,03,48,2.00
2013,03,03,03,49,2.00
2013,03,03,03,50,1.90
2013,03,03,03,51,1.90
2013,03,03,03,52,1.90
2013,03,03,03,53,1.90
2013,03,03,03,54,1.90
2013,03,03,03,55,1.90
2013,03,03,03,56,1.80
2013,03,03,03,57,1.80
2013,03,03,03,58,1.80
2013,03,03,03,59,1.80
2013,03,03,04,00,1.80
2013,03,03,04,01,1.80
2013,03,03,04,02,1.80
2013,03,03,04,03,1.80
2013,03,03,04,04,1.80
2013,03,03,04,05,1.70
2013,03,03,04,06,1.70
2013,03,03,04,07,1.70
2013,03,03,04,08,1.60
2013,03,03,04,09,1.60
2013,03,03,04,10,1.60
2013,03,03,04,11,1.60
2013,03,03,04,12,1.60
2013,03,03,04,13,1.60
2013,03,03,04,14,1.60
2013,03,03,04,15,1.60
2013,03,03,04,16,1.60
2013,03,03,04,17,1.60
2013,03,03,04,18,1.60
2013,03,03,04,19,1.60
2013,03,03,04,20,1.60
2013,03,03,04,21,1.60
2013,03,03,04,22,1.60
2013,03,03,04,23,1.60
2013,03,03,04,24,1.60
2013,03,03,04,25,1.60
2013,03,03,04,26,1.50
2013,03,03,04,27,1.50
2013,03,03,04,28,1.40
2013,03,03,04,29,1.40
2013,03,03,04,30,1.40
2013,03,03,04,31,1.40
2013,03,03,04,32,1.40
2013,03,03,04,33,1.40
2013,03,03,04,34,1.40
2013,03,03,04,35,1.40
2013,03,03,04,36,1.40
2013,03,03,04,37,1.30
2013,03,03,04,38,1.30
2013,03,03,04,39,1.30
2013,03,03,04,40,1.30
2013,03,03,04,41,1.30
2013,03,03,04,42,1.30
2013,03,03,04,43,1.30
2013,03,03,04,44,1.30
2013,03,03,04,45,1.30
2013,03,03,04,46,1.30
2013,03,03,04,47,1.30
2013,03,03,04,48,1.30
2013,03,03,04,49,1.30
2013,03,03,04,50,1.30
2013,03,03,04,51,1.20
2013,03,03,04,52,1.20
2013,03,03,04,53,1.20
2013,03,03,04,54,1.20
2013,03,03,04,55,1.20
2013,03,03,04,56,1.20
2013,03,03,04,57,1.20
2013,03,03,04,58,1.20
2013,03,03,04,59,1.20
2013,03,03,05,00,1.10
2013,03,03,05,01,1.10
2013,03,03,05,02,1.10
2013,03,03,05,03,1.10
2013,03,03,05,04,1.10
2013,03,03,05,05,1.10
2013,03,03,05,06,1.10
2013,03,03,05,07,1.00
2013,03,03,05,08,1.10
2013,03,03,05,09,1.00
2013,03,03,05,10,1.00
2013,03,03,05,11,1.00
2013,03,03,05,12,1.00
2013,03,03,05,13,0.90
2013,03,03,05,14,0.90
2013,03,03,05,15,0.90
2013,03,03,05,16,0.90
2013,03,03,05,17,0.90
2013,03,03,05,18,0.90
2013,03,03,05,19,0.90
2013,03,03,05,20,0.90
2013,03,03,05,21,0.90
2013,03,03,05,22,0.90
2013,03,03,05,23,0.90
2013,03,03,05,24,0.90
2013,03,03,05,25,0.90
2013,03,03,05,26,0.90
2013,03,03,05,27,0.90
2013,03,03,05,28,0.90
2013,03,03,05,29,0.90
2013,03,03,05,30,0.90
2013,03,03,05,31,0.90
2013,03,03,05,32,0.90
2013,03,03,05,33,0.90
2013,03,03,05,34,0.90
2013,03,03,05,35,0.90
2013,03,03,05,36,0.90
2013,03,03,05,37,0.80
2013,03,03,05,38,0.80
2013,03,03,05,39,0.80
2013,03,03,05,40,0.80
2013,03,03,05,41,0.80
2013,03,03,05,42,0.80
2013,03,03,05,43,0.80
2013,03,03,05,44,0.80
2013,03,03,05,45,0.80
2013,03,03,05,46,0.80
2013,03,03,05,47,0.80
2013,03,03,05,48,0.80
2013,03,03,05,49,0.80
2013,03,03,05,50,0.70
2013,03,03,05,51,0.70
2013,03,03,05,52,0.70
2013,03,03,05,53,0.70
2013,03,03,05,54,0.70
2013,03,03,05,55,0.70
2013,03,03,05,56,0.70
2013,03,03,05,57,0.70
2013,03,03,05,58,0.60
2013,03,03,05,59,0.60
2013,03,03,06,00,0.60
2013,03,03,06,01,0.60
2013,03,03,06,02,0.60
2013,03,03,06,03,0.60
2013,03,03,06,04,0.60
2013,03,03,06,05,0.60
2013,03,03,06,06,0.50
2013,03,03,06,07,0.50
2013,03,03,06,08,0.50
2013,03,03,06,09,0.40
2013,03,03,06,10,0.40
2013,03,03,06,11,0.40
2013,03,03,06,12,0.40
2013,03,03,06,13,0.40
2013,03,03,06,14,0.40
2013,03,03,06,15,0.30
2013,03,03,06,16,0.30
2013,03,03,06,17,0.30
2013,03,03,06,18,0.30
2013,03,03,06,19,0.30
2013,03,03,06,20,0.30
2013,03,03,06,21,0.30
2013,03,03,06,22,0.30
2013,03,03,06,23,0.30
2013,03,03,06,24,0.30
2013,03,03,06,25,0.30
2013,03,03,06,26,0.30
2013,03,03,06,27,0.30
2013,03,03,06,28,0.30
2013,03,03,06,29,0.30
2013,03,03,06,30,0.30
2013,03,03,06,31,0.30
2013,03,03,06,32,0.30
2013,03,03,06,33,0.30
2013,03,03,06,34,0.30
2013,03,03,06,35,0.30
2013,03,03,06,36,0.30
2013,03,03,06,37,0.30
2013,03,03,06,38,0.30
2013,03,03,06,39,0.30
2013,03,03,06,40,0.30
2013,03,03,06,41,0.30
2013,03,03,06,42,0.20
2013,03,03,06,43,0.20
2013,03,03,06,44,0.20
2013,03,03,06,45,0.20
2013,03,03,06,46,0.20
2013,03,03,06,47,0.20
2013,03,03,06,48,0.20
2013,03,03,06,49,0.20
2013,03,03,06,50,0.20
2013,03,03,06,51,0.10
2013,03,03,06,52,0.10
2013,03,03,06,53,0.10
2013,03,03,06,54,0.00
2013,03,03,06,55,0.00
2013,03,03,06,56,0.00
2013,03,03,06,57,0.00
2013,03,03,06,58,-0.10
2013,03,03,06,59,-0.10
2013,03,03,07,00,-0.10
2013,03,03,07,01,-0.10
2013,03,03,07,02,-0.10
2013,03,03,07,03,-0.10
2013,03,03,07,04,-0.10
2013,03,03,07,05,-0.10
2013,03,03,07,06,-0.10
2013,03,03,07,07,-0.10
2013,03,03,07,08,-0.10
2013,03,03,07,09,-0.10
2013,03,03,07,10,-0.10
2013,03,03,07,11,-0.10
2013,03,03,07,12,-0.10
2013,03,03,07,13,0.00
2013,03,03,07,14,0.00
2013,03,03,07,15,0.00
2013,03,03,07,16,0.00
2013,03,03,07,17,0.00
2013,03,03,07,18,0.00
2013,03,03,07,19,0.00
2013,03,03,07,20,0.00
2013,03,03,07,21,0.00
2013,03,03,07,22,0.10
2013,03,03,07,23,0.10
2013,03,03,07,24,0.00
2013,03,03,07,25,0.00
2013,03,03,07,26,0.00
2013,03,03,07,27,0.00
2013,03,03,07,28,0.00
2013,03,03,07,29,0.00
2013,03,03,07,30,0.00
2013,03,03,07,31,0.00
2013,03,03,07,32,0.00
2013,03,03,07,33,0.00
2013,03,03,07,34,0.00
2013,03,03,07,35,0.10
2013,03,03,07,36,0.10
2013,03,03,07,37,0.10
2013,03,03,07,38,0.10
2013,03,03,07,39,0.10
2013,03,03,07,40,0.10
2013,03,03,07,41,0.10
2013,03,03,07,42,0.10
2013,03,03,07,43,0.10
2013,03,03,07,44,0.10
2013,03,03,07,45,0.10
2013,03,03,07,46,0.10
2013,03,03,07,47,0.10
2013,03,03,07,48,0.10
2013,03,03,07,49,0.10
2013,03,03,07,50,0.10
2013,03,03,07,51,0.10
2013,03,03,07,52,0.10
2013,03,03,07,53,0.10
2013,03,03,07,54,0.20
2013,03,03,07,55,0.20
2013,03,03,07,56,0.20
2013,03,03,07,57,0.20
2013,03,03,07,58,0.30
2013,03,03,07,59,0.30
2013,03,03,08,00,0.30
2013,03,03,08,01,0.30
2013,03,03,08,02,0.40
2013,03,03,08,03,0.40
2013,03,03,08,04,0.40
2013,03,03,08,05,0.40
2013,03,03,08,06,0.40
2013,03,03,08,07,0.50
2013,03,03,08,08,0.50
2013,03,03,08,09,0.60
2013,03,03,08,10,0.60
2013,03,03,08,11,0.60
2013,03,03,08,12,0.70
2013,03,03,08,13,0.70
2013,03,03,08,14,0.70
2013,03,03,08,15,0.70
2013,03,03,08,16,0.70
2013,03,03,08,17,0.70
2013,03,03,08,18,0.70
2013,03,03,08,19,0.70
2013,03,03,08,20,0.70
2013,03,03,08,21,0.80
2013,03,03,08,22,0.80
2013,03,03,08,23,0.90
2013,03,03,08,24,0.90
2013,03,03,08,25,1.00
2013,03,03,08,26,1.00
2013,03,03,08,27,1.00
2013,03,03,08,28,1.10
2013,03,03,08,29,1.10
2013,03,03,08,30,1.10
2013,03,03,08,31,1.10
2013,03,03,08,32,1.10
2013,03,03,08,33,1.10
2013,03,03,08,34,1.10
2013,03,03,08,35,1.10
2013,03,03,08,36,1.10
2013,03,03,08,37,1.20
2013,03,03,08,38,1.20
2013,03,03,08,39,1.20
2013,03,03,08,40,1.20
2013,03,03,08,41,1.20
2013,03,03,08,42,1.20
2013,03,03,08,43,1.30
2013,03,03,08,44,1.30
2013,03,03,08,45,1.30
2013,03,03,08,46,1.40
2013,03,03,08,47,1.40
2013,03,03,08,48,1.50
2013,03,03,08,49,1.60
2013,03,03,08,50,1.60
2013,03,03,08,51,1.60
2013,03,03,08,52,1.70
2013,03,03,08,53,1.70
2013,03,03,08,54,1.70
2013,03,03,08,55,1.80
2013,03,03,08,56,1.80
2013,03,03,08,57,1.90
2013,03,03,08,58,1.90
2013,03,03,08,59,1.90
2013,03,03,09,00,1.90
2013,03,03,09,01,1.90
2013,03,03,09,02,1.90
2013,03,03,09,03,2.00
2013,03,03,09,04,2.00
2013,03,03,09,05,2.00
2013,03,03,09,06,2.10
2013,03,03,09,07,2.10
2013,03,03,09,08,2.20
2013,03,03,09,09,2.40
2013,03,03,09,10,2.50
2013,03,03,09,11,2.60
2013,03,03,09,12,2.70
2013,03,03,09,13,2.80
2013,03,03,09,14,2.90
2013,03,03,09,15,3.00
2013,03,03,09,16,3.10
2013,03,03,09,17,3.20
2013,03,03,09,18,3.30
2013,03,03,09,19,3.30
2013,03,03,09,20,3.30
2013,03,03,09,21,3.20
2013,03,03,09,22,3.20
2013,03,03,09,23,3.20
2013,03,03,09,24,3.20
2013,03,03,09,25,3.20
2013,03,03,09,26,3.10
2013,03,03,09,27,3.20
2013,03,03,09,28,3.20
2013,03,03,09,29,3.20
2013,03,03,09,30,3.20
2013,03,03,09,31,3.20
2013,03,03,09,32,3.20
2013,03,03,09,33,3.30
2013,03,03,09,34,3.40
2013,03,03,09,35,3.40
2013,03,03,09,36,3.50
2013,03,03,09,37,3.40
2013,03,03,09,38,3.40
2013,03,03,09,39,3.40
2013,03,03,09,40,3.40
2013,03,03,09,41,3.40
2013,03,03,09,42,3.40
2013,03,03,09,43,3.40
2013,03,03,09,44,3.40
2013,03,03,09,45,3.40
2013,03,03,09,46,3.40
2013,03,03,09,47,3.50
2013,03,03,09,48,3.50
2013,03,03,09,49,3.50
2013,03,03,09,50,3.50
2013,03,03,09,51,3.50
2013,03,03,09,52,3.50
2013,03,03,09,53,3.50
2013,03,03,09,54,3.50
2013,03,03,09,55,3.50
2013,03,03,09,56,3.50
2013,03,03,09,57,3.60
2013,03,03,09,58,3.60
2013,03,03,09,59,3.60
2013,03,03,10,00,3.70
2013,03,03,10,01,3.70
2013,03,03,10,02,3.80
2013,03,03,10,03,3.80
2013,03,03,10,04,3.80
2013,03,03,10,05,3.90
2013,03,03,10,06,3.90
2013,03,03,10,07,3.90
2013,03,03,10,08,3.90
2013,03,03,10,09,3.90
2013,03,03,10,10,3.90
2013,03,03,10,11,3.90
2013,03,03,10,12,4.00
2013,03,03,10,13,4.00
2013,03,03,10,14,4.00
2013,03,03,10,15,4.00
2013,03,03,10,16,4.00
2013,03,03,10,17,4.00
2013,03,03,10,18,4.00
2013,03,03,10,19,4.10
2013,03,03,10,20,4.20
2013,03,03,10,21,4.30
2013,03,03,10,22,4.30
2013,03,03,10,23,4.30
2013,03,03,10,24,4.40
2013,03,03,10,25,4.40
2013,03,03,10,26,4.50
2013,03,03,10,27,4.50
2013,03,03,10,28,4.50
2013,03,03,10,29,4.60
2013,03,03,10,30,4.60
2013,03,03,10,31,4.60
2013,03,03,10,32,4.60
2013,03,03,10,33,4.60
2013,03,03,10,34,4.70
2013,03,03,10,35,4.70
2013,03,03,10,36,4.70
2013,03,03,10,37,4.80
2013,03,03,10,38,4.80
2013,03,03,10,39,4.90
2013,03,03,10,40,5.00
2013,03,03,10,41,5.10
2013,03,03,10,42,5.20
2013,03,03,10,43,5.30
2013,03,03,10,44,5.30
2013,03,03,10,45,5.30
2013,03,03,10,46,5.30
2013,03,03,10,47,5.30
2013,03,03,10,48,5.30
2013,03,03,10,49,5.30
2013,03,03,10,50,5.20
2013,03,03,10,51,5.20
2013,03,03,10,52,5.20
2013,03,03,10,53,5.20
2013,03,03,10,54,5.20
2013,03,03,10,55,5.10
2013,03,03,10,56,5.10
2013,03,03,10,57,5.10
2013,03,03,10,58,5.10
2013,03,03,10,59,5.10
2013,03,03,11,00,5.10
2013,03,03,11,01,5.10
2013,03,03,11,02,5.10
2013,03,03,11,03,5.10
2013,03,03,11,04,5.20
2013,03,03,11,05,5.20
2013,03,03,11,06,5.20
2013,03,03,11,07,5.30
2013,03,03,11,08,5.30
2013,03,03,11,09,5.40
2013,03,03,11,10,5.50
2013,03,03,11,11,5.50
2013,03,03,11,12,5.50
2013,03,03,11,13,5.60
2013,03,03,11,14,5.50
2013,03,03,11,15,5.40
2013,03,03,11,16,5.40
2013,03,03,11,17,5.30
2013,03,03,11,18,5.20
2013,03,03,11,19,5.20
2013,03,03,11,20,5.20
2013,03,03,11,21,5.20
2013,03,03,11,22,5.20
2013,03,03,11,23,5.20
2013,03,03,11,24,5.20
2013,03,03,11,25,5.30
2013,03,03,11,26,5.30
2013,03,03,11,27,5.40
2013,03,03,11,28,5.50
2013,03,03,11,29,5.50
2013,03,03,11,30,5.50
2013,03,03,11,31,5.60
2013,03,03,11,32,5.60
2013,03,03,11,33,5.70
2013,03,03,11,34,5.60
2013,03,03,11,35,5.60
2013,03,03,11,36,5.50
2013,03,03,11,37,5.40
2013,03,03,11,38,5.40
2013,03,03,11,39,5.30
2013,03,03,11,40,5.30
2013,03,03,11,41,5.40
2013,03,03,11,42,5.40
2013,03,03,11,43,5.40
2013,03,03,11,44,5.40
2013,03,03,11,45,5.40
2013,03,03,11,46,5.40
2013,03,03,11,47,5.40
2013,03,03,11,48,5.50
2013,03,03,11,49,5.50
2013,03,03,11,50,5.50
2013,03,03,11,51,5.60
2013,03,03,11,52,5.60
2013,03,03,11,53,5.60
2013,03,03,11,54,5.60
2013,03,03,11,55,5.60
2013,03,03,11,56,5.60
2013,03,03,11,57,5.60
2013,03,03,11,58,5.60
2013,03,03,11,59,5.60
2013,03,03,12,00,5.60
2013,03,03,12,01,5.70
2013,03,03,12,02,5.70
2013,03,03,12,03,5.80
2013,03,03,12,04,5.80
2013,03,03,12,05,5.80
2013,03,03,12,06,5.80
2013,03,03,12,07,5.80
2013,03,03,12,08,5.80
2013,03,03,12,09,5.90
2013,03,03,12,10,6.00
2013,03,03,12,11,6.10
2013,03,03,12,12,6.10
2013,03,03,12,13,6.20
2013,03,03,12,14,6.20
2013,03,03,12,15,6.20
2013,03,03,12,16,6.20
2013,03,03,12,17,6.20
2013,03,03,12,18,6.20
2013,03,03,12,19,6.20
2013,03,03,12,20,6.20
2013,03,03,12,21,6.10
2013,03,03,12,22,6.10
2013,03,03,12,23,6.10
2013,03,03,12,24,6.00
2013,03,03,12,25,6.00
2013,03,03,12,26,5.90
2013,03,03,12,27,5.90
2013,03,03,12,28,5.90
2013,03,03,12,29,6.00
2013,03,03,12,30,6.00
2013,03,03,12,31,6.10
2013,03,03,12,32,6.00
2013,03,03,12,33,6.00
2013,03,03,12,34,6.00
2013,03,03,12,35,6.10
2013,03,03,12,36,6.10
2013,03,03,12,37,6.10
2013,03,03,12,38,6.10
2013,03,03,12,39,6.20
2013,03,03,12,40,6.20
2013,03,03,12,41,6.30
2013,03,03,12,42,6.30
2013,03,03,12,43,6.20
2013,03,03,12,44,6.20
2013,03,03,12,45,6.20
2013,03,03,12,46,6.20
2013,03,03,12,47,6.10
2013,03,03,12,48,6.10
2013,03,03,12,49,6.10
2013,03,03,12,50,6.20
2013,03,03,12,51,6.20
2013,03,03,12,52,6.20
2013,03,03,12,53,6.30
2013,03,03,12,54,6.30
2013,03,03,12,55,6.30
2013,03,03,12,56,6.30
2013,03,03,12,57,6.30
2013,03,03,12,58,6.30
2013,03,03,12,59,6.30
2013,03,03,13,00,6.30
2013,03,03,13,01,6.30
2013,03,03,13,02,6.30
2013,03,03,13,03,6.40
2013,03,03,13,04,6.40
2013,03,03,13,05,6.50
2013,03,03,13,06,6.50
2013,03,03,13,07,6.60
2013,03,03,13,08,6.60
2013,03,03,13,09,6.70
2013,03,03,13,10,6.70
2013,03,03,13,11,6.70
2013,03,03,13,12,6.70
2013,03,03,13,13,6.70
2013,03,03,13,14,6.70
2013,03,03,13,15,6.70
2013,03,03,13,16,6.80
2013,03,03,13,17,6.80
2013,03,03,13,18,6.80
2013,03,03,13,19,6.80
2013,03,03,13,20,6.80
2013,03,03,13,21,6.80
2013,03,03,13,22,6.80
2013,03,03,13,23,6.90
2013,03,03,13,24,7.00
2013,03,03,13,25,7.00
2013,03,03,13,26,7.00
2013,03,03,13,27,7.10
2013,03,03,13,28,7.20
2013,03,03,13,29,7.20
2013,03,03,13,30,7.20
2013,03,03,13,31,7.30
2013,03,03,13,32,7.30
2013,03,03,13,33,7.30
2013,03,03,13,34,7.30
2013,03,03,13,35,7.40
2013,03,03,13,36,7.50
2013,03,03,13,37,7.40
2013,03,03,13,38,7.40
2013,03,03,13,39,7.50
2013,03,03,13,40,7.40
2013,03,03,13,41,7.40
2013,03,03,13,42,7.40
2013,03,03,13,43,7.40
2013,03,03,13,44,7.40
2013,03,03,13,45,7.30
2013,03,03,13,46,7.30
2013,03,03,13,47,7.30
2013,03,03,13,48,7.40
2013,03,03,13,49,7.30
2013,03,03,13,50,7.30
2013,03,03,13,51,7.30
2013,03,03,13,52,7.30
2013,03,03,13,53,7.30
2013,03,03,13,54,7.30
2013,03,03,13,55,7.40
2013,03,03,13,56,7.50
2013,03,03,13,57,7.60
2013,03,03,13,58,7.70
2013,03,03,13,59,7.70
2013,03,03,14,00,7.70
2013,03,03,14,01,7.70
2013,03,03,14,02,7.80
2013,03,03,14,03,7.80
2013,03,03,14,04,7.80
2013,03,03,14,05,7.80
2013,03,03,14,06,7.80
2013,03,03,14,07,7.90
2013,03,03,14,08,7.90
2013,03,03,14,09,7.90
2013,03,03,14,10,7.90
2013,03,03,14,11,8.00
2013,03,03,14,12,8.10
2013,03,03,14,13,8.10
2013,03,03,14,14,8.10
2013,03,03,14,15,8.10
2013,03,03,14,16,8.10
2013,03,03,14,17,8.20
2013,03,03,14,18,8.20
2013,03,03,14,19,8.30
2013,03,03,14,20,8.30
2013,03,03,14,21,8.30
2013,03,03,14,22,8.30
2013,03,03,14,23,8.40
2013,03,03,14,24,8.50
2013,03,03,14,25,8.60
2013,03,03,14,26,8.60
2013,03,03,14,27,8.50
2013,03,03,14,28,8.50
2013,03,03,14,29,8.40
2013,03,03,14,30,8.40
2013,03,03,14,31,8.40
2013,03,03,14,32,8.40
2013,03,03,14,33,8.40
2013,03,03,14,34,8.40
2013,03,03,14,35,8.50
2013,03,03,14,36,8.50
2013,03,03,14,37,8.60
2013,03,03,14,38,8.60
2013,03,03,14,39,8.50
2013,03,03,14,40,8.50
2013,03,03,14,41,8.50
2013,03,03,14,42,8.50
2013,03,03,14,43,8.40
2013,03,03,14,44,8.40
2013,03,03,14,45,8.40
2013,03,03,14,46,8.40
2013,03,03,14,47,8.40
2013,03,03,14,48,8.50
2013,03,03,14,49,8.50
2013,03,03,14,50,8.40
2013,03,03,14,51,8.40
2013,03,03,14,52,8.30
2013,03,03,14,53,8.30
2013,03,03,14,54,8.20
2013,03,03,14,55,8.20
2013,03,03,14,56,8.20
2013,03,03,14,57,8.30
2013,03,03,14,58,8.30
2013,03,03,14,59,8.30
2013,03,03,15,00,8.30
2013,03,03,15,01,8.20
2013,03,03,15,02,8.20
2013,03,03,15,03,8.30
2013,03,03,15,04,8.30
2013,03,03,15,05,8.30
2013,03,03,15,06,8.40
2013,03,03,15,07,8.40
2013,03,03,15,08,8.40
2013,03,03,15,09,8.40
2013,03,03,15,10,8.40
2013,03,03,15,11,8.30
2013,03,03,15,12,8.30
2013,03,03,15,13,8.30
2013,03,03,15,14,8.40
2013,03,03,15,15,8.40
2013,03,03,15,16,8.40
2013,03,03,15,17,8.40
2013,03,03,15,18,8.30
2013,03,03,15,19,8.40
2013,03,03,15,20,8.40
2013,03,03,15,21,8.30
2013,03,03,15,22,8.30
2013,03,03,15,23,8.30
2013,03,03,15,24,8.30
2013,03,03,15,25,8.20
2013,03,03,15,26,8.30
2013,03,03,15,27,8.30
2013,03,03,15,28,8.30
2013,03,03,15,29,8.30
2013,03,03,15,30,8.30
2013,03,03,15,31,8.40
2013,03,03,15,32,8.40
2013,03,03,15,33,8.40
2013,03,03,15,34,8.40
2013,03,03,15,35,8.40
2013,03,03,15,36,8.50
2013,03,03,15,37,8.50
2013,03,03,15,38,8.60
2013,03,03,15,39,8.60
2013,03,03,15,40,8.50
2013,03,03,15,41,8.50
2013,03,03,15,42,8.40
2013,03,03,15,43,8.40
2013,03,03,15,44,8.30
2013,03,03,15,45,8.30
2013,03,03,15,46,8.30
2013,03,03,15,47,8.30
2013,03,03,15,48,8.30
2013,03,03,15,49,8.40
2013,03,03,15,50,8.40
2013,03,03,15,51,8.50
2013,03,03,15,52,8.60
2013,03,03,15,53,8.60
2013,03,03,15,54,8.70
2013,03,03,15,55,8.70
2013,03,03,15,56,8.70
2013,03,03,15,57,8.70
2013,03,03,15,58,8.70
2013,03,03,15,59,8.70
2013,03,03,16,00,8.70
2013,03,03,16,01,8.60
2013,03,03,16,02,8.60
2013,03,03,16,03,8.60
2013,03,03,16,04,8.60
2013,03,03,16,05,8.60
2013,03,03,16,06,8.60
2013,03,03,16,07,8.60
2013,03,03,16,08,8.60
2013,03,03,16,09,8.60
2013,03,03,16,10,8.60
2013,03,03,16,11,8.60
2013,03,03,16,12,8.50
2013,03,03,16,13,8.50
2013,03,03,16,14,8.50
2013,03,03,16,15,8.40
2013,03,03,16,16,8.40
2013,03,03,16,17,8.30
2013,03,03,16,18,8.30
2013,03,03,16,19,8.30
2013,03,03,16,20,8.30
2013,03,03,16,21,8.20
2013,03,03,16,22,8.20
2013,03,03,16,23,8.30
2013,03,03,16,24,8.30
2013,03,03,16,25,8.30
2013,03,03,16,26,8.30
2013,03,03,16,27,8.30
2013,03,03,16,28,8.40
2013,03,03,16,29,8.40
2013,03,03,16,30,8.40
2013,03,03,16,31,8.40
2013,03,03,16,32,8.30
2013,03,03,16,33,8.30
2013,03,03,16,34,8.30
2013,03,03,16,35,8.30
2013,03,03,16,36,8.30
2013,03,03,16,37,8.30
2013,03,03,16,38,8.30
2013,03,03,16,39,8.30
2013,03,03,16,40,8.30
2013,03,03,16,41,8.30
2013,03,03,16,42,8.30
2013,03,03,16,43,8.30
2013,03,03,16,44,8.40
2013,03,03,16,45,8.40
2013,03,03,16,46,8.40
2013,03,03,16,47,8.40
2013,03,03,16,48,8.40
2013,03,03,16,49,8.40
2013,03,03,16,50,8.40
2013,03,03,16,51,8.40
2013,03,03,16,52,8.40
2013,03,03,16,53,8.40
2013,03,03,16,54,8.40
2013,03,03,16,55,8.40
2013,03,03,16,56,8.50
2013,03,03,16,57,8.50
2013,03,03,16,58,8.50
2013,03,03,16,59,8.60
2013,03,03,17,00,8.60
2013,03,03,17,01,8.60
2013,03,03,17,02,8.60
2013,03,03,17,03,8.70
2013,03,03,17,04,8.70
2013,03,03,17,05,8.70
2013,03,03,17,06,8.70
2013,03,03,17,07,8.60
2013,03,03,17,08,8.60
2013,03,03,17,09,8.60
2013,03,03,17,10,8.60
2013,03,03,17,11,8.50
2013,03,03,17,12,8.50
2013,03,03,17,13,8.50
2013,03,03,17,14,8.40
2013,03,03,17,15,8.40
2013,03,03,17,16,8.40
2013,03,03,17,17,8.40
2013,03,03,17,18,8.30
2013,03,03,17,19,8.30
2013,03,03,17,20,8.30
2013,03,03,17,21,8.30
2013,03,03,17,22,8.30
2013,03,03,17,23,8.30
2013,03,03,17,24,8.30
2013,03,03,17,25,8.30
2013,03,03,17,26,8.30
2013,03,03,17,27,8.30
2013,03,03,17,28,8.30
2013,03,03,17,29,8.30
2013,03,03,17,30,8.30
2013,03,03,17,31,8.30
2013,03,03,17,32,8.20
2013,03,03,17,33,8.20
2013,03,03,17,34,8.20
2013,03,03,17,35,8.10
2013,03,03,17,36,8.10
2013,03,03,17,37,8.10
2013,03,03,17,38,8.00
2013,03,03,17,39,7.90
2013,03,03,17,40,7.80
2013,03,03,17,41,7.80
2013,03,03,17,42,7.70
2013,03,03,17,43,7.70
2013,03,03,17,44,7.60
2013,03,03,17,45,7.50
2013,03,03,17,46,7.50
2013,03,03,17,47,7.30
2013,03,03,17,48,7.20
2013,03,03,17,49,7.10
2013,03,03,17,50,7.00
2013,03,03,17,51,6.80
2013,03,03,17,52,6.80
2013,03,03,17,53,6.60
2013,03,03,17,54,6.50
2013,03,03,17,55,6.40
2013,03,03,17,56,6.30
2013,03,03,17,57,6.20
2013,03,03,17,58,6.10
2013,03,03,17,59,6.00
2013,03,03,18,00,5.90
2013,03,03,18,01,5.90
2013,03,03,18,02,5.80
2013,03,03,18,03,5.80
2013,03,03,18,04,5.80
2013,03,03,18,05,5.70
2013,03,03,18,06,5.70